Overview Statistics Trail Chart Weather Telemetry Raw packets
 

This is the latest recevied weather packets stored in our database for station/object SV9TNF-51. If no packets are shown the sender has not sent any weather packets the latest 10 day(s).

<< 75 76 77 78 79 80 81 >>
Time Temp. Humidity Pressure Rain* Wind** Luminosity Snow
1788124351 24.44° C 66% 1013.6 hPa 0 mm 5.36 m/s, 343° - -
1788124050 24.44° C 66% 1013.6 hPa 0 mm 2.68 m/s, 356° - -
1788123750 24.44° C 66% 1013.6 hPa 0 mm 4.92 m/s, 346° - -
1788123449 24.44° C 66% 1013.6 hPa 0 mm 4.02 m/s, 317° - -
1788123149 24.44° C 67% 1013.6 hPa 0 mm 4.92 m/s, 322° - -
1788122849 24.44° C 67% 1013.6 hPa 0 mm 4.92 m/s, 331° - -
1788122549 24.44° C 68% 1013.6 hPa 0 mm 5.36 m/s, 326° - -
1788122249 24.44° C 68% 1013.6 hPa 0 mm 2.68 m/s, 141° - -
1788121949 24.44° C 67% 1013.2 hPa 0 mm 3.13 m/s, 113° - -
1788121649 24.44° C 67% 1013.2 hPa 0 mm 3.13 m/s, 315° - -
1788121349 24.44° C 67% 1013.2 hPa 0 mm 4.02 m/s, 290° - -
1788121049 25.56° C 66% 1013.2 hPa 0 mm 1.79 m/s, 168° - -
1788120748 25.56° C 65% 1013.2 hPa 0 mm 0.45 m/s, 129° - -
1788120448 25.56° C 66% 1013.2 hPa 0 mm 1.79 m/s, 127° - -
1788120148 25.56° C 66% 1013.2 hPa 0 mm 2.68 m/s, 354° - -
1788119848 25.56° C 66% 1013.2 hPa 0 mm 1.79 m/s, 132° - -
1788119548 25.56° C 66% 1013.2 hPa 0 mm 3.58 m/s, 28° - -
1788119248 25.56° C 66% 1013.2 hPa 0 mm 3.58 m/s, 68° - -
1788118948 25.56° C 66% 1013.2 hPa 0 mm 1.79 m/s, 165° - -
1788118648 25.56° C 66% 1013.2 hPa 0 mm 2.24 m/s, 88° - -
1788118348 25.56° C 66% 1013.2 hPa 0 mm 2.68 m/s, 57° - -
1788118048 25.56° C 66% 1013.2 hPa 0 mm 4.47 m/s, 352° - -
1788117747 25.56° C 66% 1013.2 hPa 0 mm 3.58 m/s, 330° - -
1788117447 25.56° C 66% 1013.2 hPa 0 mm 4.47 m/s, 186° - -
1788117147 25.56° C 66% 1013.2 hPa 0 mm 2.68 m/s, 82° - -

* Rain latest hour (hover to see other rain measurements)
** Current wind speed in m/s (hover to see current wind gust speed)